Tracking 28792 objects as of 23-Apr-2024
HD Live streaming from Space Station
objects crossing your sky now

IUS R/B(1)

Track IUS R/B(1) now!


NORAD ID: 15544
Int'l Code: 1985-010C
Perigee: 321.5 km
Apogee: 29,695.7 km
Inclination: 27.9 °
Period: 518.5 minutes
Semi major axis: 21379 km
RCS: Unknown
Launch date: January 24, 1985
Source: United States (US)
Launch site: AIR FORCE EASTERN TEST RANGE (AFETR)

Note: This is a ROCKET BODY
Your satellite tracking list
Your tracking list is empty




NASA's NSSDC Master Catalog

Two Line Element Set (TLE):
1 15544U 85010C   24113.20124529  .00003603  00000-0  21793-2 0  9995
2 15544  27.9235  47.0943 6869660  68.3619 348.4997  2.77717632 49997
Source of the keplerian elements: AFSPC